"Period start","avg(HW err(1)/warn(2) (#))","avg(Visibility (m))","avg(Weather code (#))","avg(Precip intensity (mm/h))","min(HW err(1)/warn(2) (#))","max(HW err(1)/warn(2) (#))","std(HW err(1)/warn(2) (#))","med(HW err(1)/warn(2) (#))","min(Visibility (m))","max(Visibility (m))","std(Visibility (m))","med(Visibility (m))","min(Weather code (#))","max(Weather code (#))","std(Weather code (#))","med(Weather code (#))","min(Precip intensity (mm/h))","max(Precip intensity (mm/h))","std(Precip intensity (mm/h))","med(Precip intensity (mm/h))"
2013-10-20 00:00:00,2,48939,0,0.00,2,2,0,2,41505,50000,2557,50000,0,0,0,0,0.00,0.00,0.00,0.00
2013-10-20 00:10:00,2,48377,0,0.00,2,2,0,2,39033,50000,3342,49863,0,0,0,0,0.00,0.00,0.00,0.00
2013-10-20 00:20:00,2,47256,0,0.00,2,2,0,2,41277,50000,2905,47994,0,0,0,0,0.00,0.00,0.00,0.00
2013-10-20 00:30:00,2,43242,0,0.00,2,2,0,2,34895,50000,4739,44832,0,0,0,0,0.00,0.00,0.00,0.00
2013-10-20 00:40:00,2,38668,0,0.00,2,2,0,2,17907,50000,9728,38218,0,0,0,0,0.00,0.00,0.00,0.00
2013-10-20 00:50:00,2,39650,0,0.00,2,2,0,2,17930,50000,11977,43500,0,0,0,0,0.00,0.00,0.00,0.00
2013-10-20 01:00:00,2,41296,0,0.00,2,2,0,2,31063,50000,6139,39992,0,0,0,0,0.00,0.00,0.00,0.00
2013-10-20 01:10:00,2,47858,0,0.00,2,2,0,2,43348,50000,2715,49864,0,0,0,0,0.00,0.00,0.00,0.00
2013-10-20 01:20:00,2,44766,0,0.00,2,2,0,2,31265,50000,6068,47052,0,0,0,0,0.00,0.00,0.00,0.00
2013-10-20 01:30:00,2,44395,0,0.00,2,2,0,2,36149,50000,3999,45360,0,0,0,0,0.00,0.00,0.00,0.00
2013-10-20 01:40:00,2,47187,0,0.00,2,2,0,2,40699,50000,3395,49405,0,0,0,0,0.00,0.00,0.00,0.00
2013-10-20 01:50:00,2,43388,0,0.00,2,2,0,2,32775,50000,6117,44515,0,0,0,0,0.00,0.00,0.00,0.00
2013-10-20 02:00:00,2,40933,0,0.00,2,2,0,2,24509,50000,8886,41778,0,0,0,0,0.00,0.00,0.00,0.00
2013-10-20 02:10:00,2,40433,0,0.00,2,2,0,2,24907,50000,8564,40717,0,0,0,0,0.00,0.00,0.00,0.00
2013-10-20 02:20:00,2,40020,0,0.00,2,2,0,2,29168,50000,6173,38934,0,0,0,0,0.00,0.00,0.00,0.00
2013-10-20 02:30:00,2,45873,0,0.00,2,2,0,2,37927,50000,4783,48676,0,0,0,0,0.00,0.00,0.00,0.00
2013-10-20 02:40:00,2,48861,0,0.00,2,2,0,2,42986,50000,2067,50000,0,0,0,0,0.00,0.00,0.00,0.00
2013-10-20 02:50:00,2,37219,0,0.00,2,2,0,2,26089,47195,6483,37246,0,0,0,0,0.00,0.00,0.00,0.00
2013-10-20 03:00:00,2,43350,0,0.00,2,2,0,2,29070,50000,6896,45419,0,0,0,0,0.00,0.00,0.00,0.00
2013-10-20 03:10:00,2,43069,0,0.00,2,2,0,2,32502,50000,5695,43072,0,0,0,0,0.00,0.00,0.00,0.00
2013-10-20 03:20:00,2,45600,0,0.00,2,2,0,2,37593,50000,3663,46427,0,0,0,0,0.00,0.00,0.00,0.00
2013-10-20 03:30:00,2,40502,0,0.00,2,2,0,2,35961,46176,2820,40960,0,0,0,0,0.00,0.00,0.00,0.00
2013-10-20 03:40:00,2,42212,0,0.00,2,2,0,2,33465,50000,5570,42614,0,0,0,0,0.00,0.00,0.00,0.00
2013-10-20 03:50:00,2,31317,0,0.00,2,2,0,2,18288,46688,9575,29553,0,0,0,0,0.00,0.00,0.00,0.00
2013-10-20 04:00:00,2,30027,0,0.00,2,2,0,2,19619,45779,8412,29108,0,0,0,0,0.00,0.00,0.00,0.00
2013-10-20 04:10:00,2,24641,0,0.00,2,2,0,2,10073,36912,8729,25634,0,0,0,0,0.00,0.00,0.00,0.00
2013-10-20 04:20:00,2,24117,0,0.00,2,2,0,2,12519,50000,11256,20939,0,0,0,0,0.00,0.00,0.00,0.00
2013-10-20 04:30:00,2,24509,0,0.00,2,2,0,2,12772,43121,8665,22520,0,0,0,0,0.00,0.00,0.00,0.00
2013-10-20 04:40:00,2,28164,0,0.00,2,2,0,2,14320,50000,12140,25856,0,0,0,0,0.00,0.00,0.00,0.00
2013-10-20 04:50:00,2,32184,0,0.00,2,2,0,2,21091,46140,8293,31010,0,0,0,0,0.00,0.00,0.00,0.00
2013-10-20 05:00:00,2,34930,0,0.00,2,2,0,2,23685,49436,7333,32914,0,0,0,0,0.00,0.00,0.00,0.00
2013-10-20 05:10:00,2,37695,0,0.00,2,2,0,2,29530,47546,6684,36592,0,0,0,0,0.00,0.00,0.00,0.00
2013-10-20 05:20:00,2,30084,0,0.00,2,2,0,2,23208,41080,5666,29689,0,0,0,0,0.00,0.00,0.00,0.00
2013-10-20 05:30:00,2,34975,0,0.00,2,2,0,2,24942,42749,5159,35408,0,0,0,0,0.00,0.00,0.00,0.00
2013-10-20 05:40:00,2,34033,0,0.00,2,2,0,2,28939,39098,3169,35420,0,0,0,0,0.00,0.00,0.00,0.00
2013-10-20 05:50:00,2,39739,0,0.00,2,2,0,2,29960,45989,5242,41051,0,0,0,0,0.00,0.00,0.00,0.00
2013-10-20 06:00:00,2,40798,0,0.00,2,2,0,2,28903,50000,7275,42582,0,0,0,0,0.00,0.00,0.00,0.00
2013-10-20 06:10:00,2,44030,0,0.00,2,2,0,2,33598,49389,4874,44732,0,0,0,0,0.00,0.00,0.00,0.00
2013-10-20 06:20:00,2,46442,0,0.00,2,2,0,2,40729,50000,3670,47120,0,0,0,0,0.00,0.00,0.00,0.00
2013-10-20 06:30:00,2,49594,0,0.00,2,2,0,2,48484,50000,561,50000,0,0,0,0,0.00,0.00,0.00,0.00
2013-10-20 06:40:00,2,49920,0,0.00,2,2,0,2,49200,50000,240,50000,0,0,0,0,0.00,0.00,0.00,0.00
2013-10-20 06:50:00,2,49554,0,0.00,2,2,0,2,46651,50000,1015,50000,0,0,0,0,0.00,0.00,0.00,0.00
2013-10-20 07:00:00,2,50000,0,0.00,2,2,0,2,50000,50000,0,50000,0,0,0,0,0.00,0.00,0.00,0.00
2013-10-20 07:10:00,2,50000,0,0.00,2,2,0,2,50000,50000,0,50000,0,0,0,0,0.00,0.00,0.00,0.00
2013-10-20 07:20:00,2,50000,0,0.00,2,2,0,2,50000,50000,0,50000,0,0,0,0,0.00,0.00,0.00,0.00
2013-10-20 07:30:00,2,49635,0,0.00,2,2,0,2,47220,50000,846,50000,0,0,0,0,0.00,0.00,0.00,0.00
2013-10-20 07:40:00,2,50000,0,0.00,2,2,0,2,50000,50000,0,50000,0,0,0,0,0.00,0.00,0.00,0.00
2013-10-20 07:50:00,2,49738,0,0.00,2,2,0,2,47380,50000,786,50000,0,0,0,0,0.00,0.00,0.00,0.00
2013-10-20 08:00:00,2,49822,0,0.00,2,2,0,2,48221,50000,534,50000,0,0,0,0,0.00,0.00,0.00,0.00
2013-10-20 08:10:00,2,47789,0,0.00,2,2,0,2,41159,50000,3482,50000,0,0,0,0,0.00,0.00,0.00,0.00
2013-10-20 08:20:00,2,50000,0,0.00,2,2,0,2,50000,50000,0,50000,0,0,0,0,0.00,0.00,0.00,0.00
2013-10-20 08:30:00,2,47787,0,0.00,2,2,0,2,40203,50000,3564,50000,0,0,0,0,0.00,0.00,0.00,0.00
2013-10-20 08:40:00,2,40936,0,0.00,2,2,0,2,32663,50000,6170,39567,0,0,0,0,0.00,0.00,0.00,0.00
2013-10-20 08:50:00,2,50000,0,0.00,2,2,0,2,50000,50000,0,50000,0,0,0,0,0.00,0.00,0.00,0.00
2013-10-20 09:00:00,2,50000,0,0.00,2,2,0,2,50000,50000,0,50000,0,0,0,0,0.00,0.00,0.00,0.00
2013-10-20 09:10:00,2,50000,0,0.00,2,2,0,2,50000,50000,0,50000,0,0,0,0,0.00,0.00,0.00,0.00
2013-10-20 09:20:00,2,49931,0,0.00,2,2,0,2,49317,50000,205,50000,0,0,0,0,0.00,0.00,0.00,0.00
2013-10-20 09:30:00,2,50000,0,0.00,2,2,0,2,50000,50000,0,50000,0,0,0,0,0.00,0.00,0.00,0.00
2013-10-20 09:40:00,2,49718,0,0.00,2,2,0,2,47688,50000,693,50000,0,0,0,0,0.00,0.00,0.00,0.00
2013-10-20 09:50:00,2,50000,0,0.00,2,2,0,2,50000,50000,0,50000,0,0,0,0,0.00,0.00,0.00,0.00
2013-10-20 10:00:00,2,49782,0,0.00,2,2,0,2,47820,50000,654,50000,0,0,0,0,0.00,0.00,0.00,0.00
2013-10-20 10:10:00,2,50000,0,0.00,2,2,0,2,50000,50000,0,50000,0,0,0,0,0.00,0.00,0.00,0.00
2013-10-20 10:20:00,2,50000,0,0.00,2,2,0,2,50000,50000,0,50000,0,0,0,0,0.00,0.00,0.00,0.00
2013-10-20 10:30:00,2,50000,0,0.00,2,2,0,2,50000,50000,0,50000,0,0,0,0,0.00,0.00,0.00,0.00
2013-10-20 10:40:00,2,50000,0,0.00,2,2,0,2,50000,50000,0,50000,0,0,0,0,0.00,0.00,0.00,0.00
2013-10-20 10:50:00,2,50000,0,0.00,2,2,0,2,50000,50000,0,50000,0,0,0,0,0.00,0.00,0.00,0.00
2013-10-20 11:00:00,2,50000,0,0.00,2,2,0,2,50000,50000,0,50000,0,0,0,0,0.00,0.00,0.00,0.00
2013-10-20 11:10:00,2,50000,0,0.00,2,2,0,2,50000,50000,0,50000,0,0,0,0,0.00,0.00,0.00,0.00
2013-10-20 11:20:00,2,49974,0,0.00,2,2,0,2,49741,50000,78,50000,0,0,0,0,0.00,0.00,0.00,0.00
2013-10-20 11:30:00,2,50000,0,0.00,2,2,0,2,50000,50000,0,50000,0,0,0,0,0.00,0.00,0.00,0.00
2013-10-20 11:40:00,2,50000,0,0.00,2,2,0,2,50000,50000,0,50000,0,0,0,0,0.00,0.00,0.00,0.00
2013-10-20 11:50:00,2,50000,0,0.00,2,2,0,2,50000,50000,0,50000,0,0,0,0,0.00,0.00,0.00,0.00
2013-10-20 12:00:00,2,49972,0,0.00,2,2,0,2,49720,50000,84,50000,0,0,0,0,0.00,0.00,0.00,0.00
2013-10-20 12:10:00,2,50000,0,0.00,2,2,0,2,50000,50000,0,50000,0,0,0,0,0.00,0.00,0.00,0.00
2013-10-20 12:20:00,2,50000,0,0.00,2,2,0,2,50000,50000,0,50000,0,0,0,0,0.00,0.00,0.00,0.00
2013-10-20 12:30:00,2,50000,0,0.00,2,2,0,2,50000,50000,0,50000,0,0,0,0,0.00,0.00,0.00,0.00
2013-10-20 12:40:00,2,50000,0,0.00,2,2,0,2,50000,50000,0,50000,0,0,0,0,0.00,0.00,0.00,0.00
2013-10-20 12:50:00,2,50000,0,0.00,2,2,0,2,50000,50000,0,50000,0,0,0,0,0.00,0.00,0.00,0.00
2013-10-20 13:00:00,2,49997,0,0.00,2,2,0,2,49969,50000,9,50000,0,0,0,0,0.00,0.00,0.00,0.00
2013-10-20 13:10:00,2,50000,0,0.00,2,2,0,2,50000,50000,0,50000,0,0,0,0,0.00,0.00,0.00,0.00
2013-10-20 13:20:00,2,50000,0,0.00,2,2,0,2,50000,50000,0,50000,0,0,0,0,0.00,0.00,0.00,0.00
2013-10-20 13:30:00,2,50000,0,0.00,2,2,0,2,50000,50000,0,50000,0,0,0,0,0.00,0.00,0.00,0.00
2013-10-20 13:40:00,2,50000,0,0.00,2,2,0,2,50000,50000,0,50000,0,0,0,0,0.00,0.00,0.00,0.00
2013-10-20 13:50:00,2,46422,0,0.00,2,2,0,2,40801,50000,3519,46937,0,0,0,0,0.00,0.00,0.00,0.00
2013-10-20 14:00:00,2,49986,0,0.00,2,2,0,2,49858,50000,43,50000,0,0,0,0,0.00,0.00,0.00,0.00
2013-10-20 14:10:00,2,50000,0,0.00,2,2,0,2,50000,50000,0,50000,0,0,0,0,0.00,0.00,0.00,0.00
2013-10-20 14:20:00,2,49893,0,0.00,2,2,0,2,49253,50000,234,50000,0,0,0,0,0.00,0.00,0.00,0.00
2013-10-20 14:30:00,2,49834,0,0.00,2,2,0,2,48337,50000,499,50000,0,0,0,0,0.00,0.00,0.00,0.00
2013-10-20 14:40:00,2,49910,0,0.00,2,2,0,2,49099,50000,270,50000,0,0,0,0,0.00,0.00,0.00,0.00
2013-10-20 14:50:00,2,50000,0,0.00,2,2,0,2,50000,50000,0,50000,0,0,0,0,0.00,0.00,0.00,0.00
2013-10-20 15:00:00,2,49528,0,0.00,2,2,0,2,45554,50000,1327,50000,0,0,0,0,0.00,0.00,0.00,0.00
2013-10-20 15:10:00,2,50000,0,0.00,2,2,0,2,50000,50000,0,50000,0,0,0,0,0.00,0.00,0.00,0.00
2013-10-20 15:20:00,2,49922,0,0.00,2,2,0,2,49220,50000,234,50000,0,0,0,0,0.00,0.00,0.00,0.00
2013-10-20 15:30:00,2,50000,0,0.00,2,2,0,2,50000,50000,0,50000,0,0,0,0,0.00,0.00,0.00,0.00
2013-10-20 15:40:00,2,49360,0,0.00,2,2,0,2,45603,50000,1387,50000,0,0,0,0,0.00,0.00,0.00,0.00
2013-10-20 15:50:00,2,50000,0,0.00,2,2,0,2,50000,50000,0,50000,0,0,0,0,0.00,0.00,0.00,0.00
2013-10-20 16:00:00,2,49706,0,0.00,2,2,0,2,47493,50000,749,50000,0,0,0,0,0.00,0.00,0.00,0.00
2013-10-20 16:10:00,2,49907,0,0.00,2,2,0,2,49069,50000,279,50000,0,0,0,0,0.00,0.00,0.00,0.00
2013-10-20 16:20:00,2,50000,0,0.00,2,2,0,2,50000,50000,0,50000,0,0,0,0,0.00,0.00,0.00,0.00
2013-10-20 16:30:00,2,50000,0,0.00,2,2,0,2,50000,50000,0,50000,0,0,0,0,0.00,0.00,0.00,0.00
2013-10-20 16:40:00,2,49917,0,0.00,2,2,0,2,49166,50000,250,50000,0,0,0,0,0.00,0.00,0.00,0.00
2013-10-20 16:50:00,2,50000,0,0.00,2,2,0,2,50000,50000,0,50000,0,0,0,0,0.00,0.00,0.00,0.00
2013-10-20 17:00:00,2,49865,0,0.00,2,2,0,2,48647,50000,406,50000,0,0,0,0,0.00,0.00,0.00,0.00
2013-10-20 17:10:00,2,50000,0,0.00,2,2,0,2,50000,50000,0,50000,0,0,0,0,0.00,0.00,0.00,0.00
2013-10-20 17:20:00,2,50000,0,0.00,2,2,0,2,50000,50000,0,50000,0,0,0,0,0.00,0.00,0.00,0.00
2013-10-20 17:30:00,2,38443,0,0.00,2,2,0,2,27723,49499,6445,38659,0,0,0,0,0.00,0.00,0.00,0.00
2013-10-20 17:40:00,2,32390,0,0.00,2,2,0,2,24351,39631,4245,32186,0,0,0,0,0.00,0.00,0.00,0.00
2013-10-20 17:50:00,2,45645,0,0.00,2,2,0,2,39919,50000,3204,45348,0,0,0,0,0.00,0.00,0.00,0.00
2013-10-20 18:00:00,2,41981,0,0.00,2,2,0,2,22043,50000,10684,48660,0,0,0,0,0.00,0.00,0.00,0.00
2013-10-20 18:10:00,2,27379,0,0.00,2,2,0,2,16396,37158,6854,28678,0,0,0,0,0.00,0.00,0.00,0.00
2013-10-20 18:20:00,2,48542,0,0.00,2,2,0,2,43546,50000,2145,49554,0,0,0,0,0.00,0.00,0.00,0.00
2013-10-20 18:30:00,2,49425,0,0.00,2,2,0,2,44681,50000,1585,50000,0,0,0,0,0.00,0.00,0.00,0.00
2013-10-20 18:40:00,2,49994,0,0.00,2,2,0,2,49945,50000,16,50000,0,0,0,0,0.00,0.00,0.00,0.00
2013-10-20 18:50:00,2,49941,0,0.00,2,2,0,2,49410,50000,177,50000,0,0,0,0,0.00,0.00,0.00,0.00
2013-10-20 19:00:00,2,40787,0,0.00,2,2,0,2,21896,50000,9172,42524,0,0,0,0,0.00,0.00,0.00,0.00
2013-10-20 19:10:00,2,45219,0,0.00,2,2,0,2,30868,50000,6768,49594,0,0,0,0,0.00,0.00,0.00,0.00
2013-10-20 19:20:00,2,49111,0,0.00,2,2,0,2,42218,50000,2321,50000,0,0,0,0,0.00,0.00,0.00,0.00
2013-10-20 19:30:00,2,50000,0,0.00,2,2,0,2,50000,50000,0,50000,0,0,0,0,0.00,0.00,0.00,0.00
2013-10-20 19:40:00,2,50000,0,0.00,2,2,0,2,50000,50000,0,50000,0,0,0,0,0.00,0.00,0.00,0.00
2013-10-20 19:50:00,2,49973,0,0.00,2,2,0,2,49728,50000,82,50000,0,0,0,0,0.00,0.00,0.00,0.00
2013-10-20 20:00:00,2,50000,0,0.00,2,2,0,2,50000,50000,0,50000,0,0,0,0,0.00,0.00,0.00,0.00
2013-10-20 20:10:00,2,50000,0,0.00,2,2,0,2,50000,50000,0,50000,0,0,0,0,0.00,0.00,0.00,0.00
2013-10-20 20:20:00,2,50000,0,0.00,2,2,0,2,50000,50000,0,50000,0,0,0,0,0.00,0.00,0.00,0.00
2013-10-20 20:30:00,2,48632,0,0.00,2,2,0,2,42400,50000,2757,50000,0,0,0,0,0.00,0.00,0.00,0.00
2013-10-20 20:40:00,2,50000,0,0.00,2,2,0,2,50000,50000,0,50000,0,0,0,0,0.00,0.00,0.00,0.00
2013-10-20 20:50:00,2,50000,0,0.00,2,2,0,2,50000,50000,0,50000,0,0,0,0,0.00,0.00,0.00,0.00
2013-10-20 21:00:00,2,50000,0,0.00,2,2,0,2,50000,50000,0,50000,0,0,0,0,0.00,0.00,0.00,0.00
2013-10-20 21:10:00,2,50000,0,0.00,2,2,0,2,50000,50000,0,50000,0,0,0,0,0.00,0.00,0.00,0.00
2013-10-20 21:20:00,2,50000,0,0.00,2,2,0,2,50000,50000,0,50000,0,0,0,0,0.00,0.00,0.00,0.00
2013-10-20 21:30:00,2,49920,0,0.00,2,2,0,2,49196,50000,241,50000,0,0,0,0,0.00,0.00,0.00,0.00
2013-10-20 21:40:00,2,49456,0,0.00,2,2,0,2,46574,50000,1074,50000,0,0,0,0,0.00,0.00,0.00,0.00
2013-10-20 21:50:00,2,44406,0,0.00,2,2,0,2,27650,50000,7018,47268,0,0,0,0,0.00,0.00,0.00,0.00
2013-10-20 22:00:00,2,42665,0,0.00,2,2,0,2,31413,49720,4894,43970,0,0,0,0,0.00,0.00,0.00,0.00
2013-10-20 22:10:00,2,33974,0,0.00,2,2,0,2,31058,39280,2444,33922,0,0,0,0,0.00,0.00,0.00,0.00
2013-10-20 22:20:00,2,29730,0,0.00,2,2,0,2,23550,43060,6750,27297,0,0,0,0,0.00,0.00,0.00,0.00
2013-10-20 22:30:00,2,45442,0,0.00,2,2,0,2,36538,50000,4859,47214,0,0,0,0,0.00,0.00,0.00,0.00
2013-10-20 22:40:00,2,50000,0,0.00,2,2,0,2,50000,50000,0,50000,0,0,0,0,0.00,0.00,0.00,0.00
2013-10-20 22:50:00,2,50000,0,0.00,2,2,0,2,50000,50000,0,50000,0,0,0,0,0.00,0.00,0.00,0.00
2013-10-20 23:00:00,2,50000,0,0.00,2,2,0,2,50000,50000,0,50000,0,0,0,0,0.00,0.00,0.00,0.00
2013-10-20 23:10:00,2,50000,0,0.00,2,2,0,2,50000,50000,0,50000,0,0,0,0,0.00,0.00,0.00,0.00
2013-10-20 23:20:00,2,49653,0,0.00,2,2,0,2,46530,50000,1041,50000,0,0,0,0,0.00,0.00,0.00,0.00
2013-10-20 23:30:00,2,49884,0,0.00,2,2,0,2,48844,50000,347,50000,0,0,0,0,0.00,0.00,0.00,0.00
2013-10-20 23:40:00,2,49923,0,0.00,2,2,0,2,49417,50000,178,50000,0,0,0,0,0.00,0.00,0.00,0.00
2013-10-20 23:50:00,2,49401,0,0.00,2,2,0,2,47519,50000,979,50000,0,0,0,0,0.00,0.00,0.00,0.00
